Location: Newark
(50.4348°N, 30.5552°E)
Time: 10:26:49
(UTC+00:00)

Transit 2A - All Passes

Search period start: 27 January 2020 00:00
Search period end: 06 February 2020 00:00
Orbit: 601 x 958 km, 66.7° (Epoch: 26 January)

Date Brightness Start Highest point End Pass type
(mag) Time Alt. Az. Time Alt. Az. Time Alt. Az.
27 Jan - 00:19:01 10° NNW 00:22:54 25° NE 00:27:00 10° E night (unlit)
27 Jan - 02:01:45 10° NW 02:06:28 74° SW 02:11:38 10° SSE visible
27 Jan - 03:46:54 10° W 03:48:56 12° WSW 03:51:03 10° SW visible
27 Jan - 16:47:28 10° S 16:51:10 27° ESE 16:54:51 10° ENE visible
27 Jan - 18:29:54 10° WSW 18:34:05 45° NW 18:38:20 10° NNE visible
27 Jan - 20:16:01 10° NW 20:18:22 14° NNW 20:20:47 10° NNE night (unlit)
27 Jan - 22:02:45 10° N 22:03:35 10° N 22:04:24 10° NNE night (unlit)
27 Jan - 23:45:02 10° NNW 23:48:32 21° NNE 23:52:13 10° E night (unlit)
28 Jan - 01:27:37 10° NW 01:32:20 81° NE 01:37:31 10° SE visible
28 Jan - 03:11:45 10° WNW 03:15:02 18° WSW 03:18:29 10° SSW visible
28 Jan - 16:14:10 10° SSE 16:17:13 19° ESE 16:20:16 10° ENE visible
28 Jan - 17:55:34 10° SW 17:59:53 63° NW 18:04:15 10° NNE visible
28 Jan - 19:41:05 10° WNW 19:43:55 17° NNW 19:46:48 10° NNE night (unlit)
28 Jan - 21:28:32 10° N 21:29:01 10° N 21:29:31 10° N night (unlit)
28 Jan - 23:11:03 10° NNW 23:14:07 17° NNE 23:17:20 10° ENE night (unlit)
29 Jan - 00:53:32 10° NNW 00:58:10 59° NE 01:03:15 10° SE night (unlit)
29 Jan - 02:37:07 10° WNW 02:41:04 25° WSW 02:45:18 10° SSW visible
29 Jan - 15:41:26 10° SE 15:43:19 13° ESE 15:45:13 10° E visible
29 Jan - 17:21:22 10° SW 17:25:44 90° NNW 17:30:08 10° NE visible
29 Jan - 19:06:14 10° W 19:09:30 20° NNW 19:12:50 10° NNE visible
29 Jan - 20:53:44 10° NNW 20:54:28 10° N 20:55:13 10° N night (unlit)
29 Jan - 22:37:05 10° NNW 22:39:41 15° NNE 22:42:22 10° ENE night (unlit)
30 Jan - 00:19:28 10° NNW 00:23:57 44° NE 00:28:51 10° ESE night (unlit)
30 Jan - 02:02:42 10° NW 02:07:04 35° WSW 02:11:48 10° S night (unlit)
30 Jan - 16:47:19 10° SSW 16:51:38 63° ESE 16:55:58 10° NE visible
30 Jan - 18:31:31 10° W 18:35:08 25° NW 18:38:50 10° NNE visible
30 Jan - 20:18:41 10° NNW 20:19:56 11° N 20:21:12 10° N night (unlit)
30 Jan - 22:03:06 10° N 22:05:12 13° NNE 22:07:20 10° NE night (unlit)
30 Jan - 23:45:26 10° NNW 23:49:42 34° NE 23:54:19 10° ESE night (unlit)
31 Jan - 01:28:24 10° NW 01:33:01 50° WSW 01:38:04 10° SSE night (unlit)
31 Jan - 16:13:28 10° S 16:17:35 42° ESE 16:21:43 10° NE visible
31 Jan - 17:56:54 10° WSW 18:00:50 32° NW 18:04:49 10° NNE visible
31 Jan - 19:43:37 10° NW 19:45:24 12° NNW 19:47:13 10° N visible
31 Jan - 21:29:06 10° N 21:30:40 11° NNE 21:32:17 10° NNE night (unlit)
31 Jan - 23:11:25 10° NNW 23:15:24 27° NE 23:19:40 10° E night (unlit)
01 Feb - 00:54:11 10° NW 00:58:56 70° WSW 01:04:09 10° SSE night (unlit)
01 Feb - 02:39:38 10° W 02:41:22 12° WSW 02:43:10 10° SW night (unlit)
01 Feb - 15:39:48 10° S 15:43:35 29° ESE 15:47:22 10° NE visible
01 Feb - 17:22:24 10° WSW 17:26:33 42° NW 17:30:47 10° NNE visible
01 Feb - 19:08:37 10° NW 19:10:54 14° NNW 19:13:14 10° NNE visible
01 Feb - 20:55:03 10° N 20:56:08 11° N 20:57:14 10° NNE night (unlit)
01 Feb - 22:37:25 10° NNW 22:41:03 22° NNE 22:44:54 10° E night (unlit)
02 Feb - 00:20:03 10° NW 00:24:49 86° NE 00:30:04 10° SE night (unlit)
02 Feb - 02:04:18 10° WNW 02:07:28 17° WSW 02:10:48 10° SSW night (unlit)
02 Feb - 15:06:26 10° SSE 15:09:38 20° ESE 15:12:50 10° ENE daylight
02 Feb - 16:48:03 10° SW 16:52:20 59° NW 16:56:43 10° NNE visible
02 Feb - 18:33:40 10° WNW 18:36:26 16° NNW 18:39:15 10° NNE visible
02 Feb - 20:20:50 10° N 20:21:35 10° N 20:22:20 10° NNE night (unlit)
02 Feb - 22:03:25 10° NNW 22:06:39 18° NNE 22:10:03 10° ENE night (unlit)
02 Feb - 23:45:56 10° NNW 23:50:40 64° NE 23:55:50 10° SE night (unlit)
03 Feb - 01:29:37 10° WNW 01:33:30 24° WSW 01:37:42 10° SSW night (unlit)
03 Feb - 14:33:31 10° SE 14:35:43 14° ESE 14:37:56 10° ENE daylight
03 Feb - 16:13:49 10° SW 16:18:11 84° NW 16:22:36 10° NE visible
03 Feb - 17:58:49 10° WNW 18:02:01 19° NNW 18:05:17 10° NNE visible
03 Feb - 19:46:12 10° NNW 19:47:01 10° N 19:47:52 10° N visible
03 Feb - 21:29:26 10° NNW 21:32:13 15° NNE 21:35:06 10° ENE night (unlit)
03 Feb - 23:11:52 10° NNW 23:16:27 47° NE 23:21:27 10° ESE night (unlit)
04 Feb - 00:55:10 10° NW 00:59:31 33° WSW 01:04:15 10° S night (unlit)
04 Feb - 15:39:45 10° SSW 15:44:04 68° ESE 15:48:26 10° NE visible
04 Feb - 17:24:04 10° W 17:27:38 24° NW 17:31:17 10° NNE visible
04 Feb - 19:11:14 10° NNW 19:12:28 11° N 19:13:44 10° N visible
04 Feb - 20:55:27 10° NNW 20:57:44 13° NNE 21:00:06 10° NE night (unlit)
04 Feb - 22:37:50 10° NNW 22:42:12 36° NE 22:46:57 10° ESE night (unlit)
05 Feb - 00:20:51 10° NW 00:25:29 46° WSW 00:30:34 10° SSE night (unlit)
05 Feb - 15:05:51 10° SSW 15:10:00 46° ESE 15:14:13 10° NE daylight
05 Feb - 16:49:26 10° WSW 16:53:18 30° NW 16:57:16 10° NNE visible
05 Feb - 18:36:12 10° NW 18:37:56 12° NNW 18:39:42 10° N visible
05 Feb - 20:21:26 10° N 20:23:13 12° NNE 20:25:03 10° NE visible
05 Feb - 22:03:49 10° NNW 22:07:54 29° NE 22:12:20 10° E night (unlit)
05 Feb - 23:46:38 10° NW 23:51:24 65° WSW 23:56:40 10° SSE night (unlit)
